SCATSAT 1

Last updated on Fri Oct 04 2024 00:02:25 GMT+0000 (Coordinated Universal Time)

1 41790U 16059H 24277.59461298 .00006835 00000+0 96067-3 0 9990 2 41790 98.2090 321.8938 0059166 86.1024 274.6947 14.76492082 9756
UTC large
Height (km)
Speed (km/s)
/
Latitude / Longitude
Inclination (degrees)
Orbital Period (minutes)
Azimuth
Elevation
Range (km)
Doppler Factor

Next 0 passes for location: London (51.5072 / 0.1276)

Sorry there are no passes over London.